シューメーカー第4彗星

199P/Shoemaker 4 (2023)

English version
Home page
Updated on January 4, 2024

---------------------------------------------------------------------

・ プロフィール

・ 写真集

・ 軌道要素

Epoch 2023 Feb. 25.0 TT = JDT 2460000.5
T 2023 Aug. 7.58132 TT                                  Rudenko
q   2.9102861            (2000.0)            P               Q
n   0.06906419     Peri.  191.77461     +0.22500404     +0.87859045
a   5.8834775      Node    92.34878     -0.85624196     +0.38462001
e   0.5053459      Incl.   24.93594     -0.46499772     -0.28310115
P  14.3
>From 552 observations 2008 May 2-2023 Feb. 26, mean residual 0".6.
     Nongravitational parameters A1 = -0.40, A2 = -0.4283.

・ 星図

・ 光度変化

        m1 = 4.8 + 5 logΔ + 20 log r(t + 50)

---------------------------------------------------------------------

軌道要素はM.P.E.C. 2023-D72に掲載されたものです。
星図はステラナビゲータ Ver.10 (アストロアーツ) で作成したものです。
光度グラフはComet for Windowsで作成したものです。

---------------------------------------------------------------------

Copyright(C) Seiichi Yoshida (comet@aerith.net). All rights reserved.